[[{"header":{"parameterUnit":"m.s-1","parameterCategory":1,"la1":30.2991,"la2":30.254,"lo1":-89.0895,"lo2":-89.0444,"dy":0.0017,"dx":0.0017,"nx":28,"ny":28,"refTime":"2025-02-04T03:00:00:Z","depth":0,"parameterNumber":2,"parameterNumberName":"U-component_of_WINDS"},"data":[0,0,0,0,0,0,0,0,0,0,0,0,0,0,0,0,0,0,0,0,0,0,0,0,0,0,0,0,0,0,0,0,0,0,0,0,0,0,0,0,0,0,0,0,0,0,0,0,0,0,0,0,0,0,0,0,0,0,-0.3305,-0.3305,0,-0.3282,-0.3282,-0.3282,-0.326,-0.326,-0.326,-0.3259,-0.3236,-0.3236,-0.3235,0,0,0,0,0,0,0,0,0,0,0,0,0,-0.3331,-0.333,-0.3305,-0.3305,-0.3304,-0.3282,-0.3282,-0.3281,-0.326,-0.326,-0.326,-0.3259,-0.3236,-0.3236,-0.3235,0,0,0,0,0,0,0,0,0,0,0,0,0,-0.3315,-0.333,-0.3305,-0.3291,-0.329,-0.3282,-0.3282,-0.3281,-0.326,-0.326,-0.326,-0.3259,-0.3236,-0.3236,-0.3235,-0.324,0,0,-0.3234,-0.3233,0,0,0,0,0,0,0,0,-0.3316,-0.3314,-0.3293,-0.3292,-0.329,-0.3274,-0.3282,-0.3267,-0.326,-0.3271,-0.3259,-0.3259,-0.3249,-0.3247,-0.3244,-0.3239,-0.3238,-0.3234,-0.3233,-0.3233,-0.3233,0,0,0,0,0,0,0,-0.3317,-0.3315,-0.3296,-0.3293,-0.3291,-0.3286,-0.3283,-0.3279,-0.3263,-0.327,-0.3269,-0.3266,-0.3248,-0.3245,-0.3243,-0.3237,-0.3234,-0.3233,-0.3233,-0.3233,-0.3235,-0.3235,0,0,0,0,0,0,-0.332,-0.3316,-0.3297,-0.3295,-0.3302,-0.3286,-0.3283,-0.3279,-0.3263,-0.326,-0.3267,-0.3266,-0.3246,-0.3244,-0.3242,-0.3246,-0.3233,-0.3233,-0.3232,-0.3235,-0.3235,-0.3235,0,0,0,0,0,0,-0.3321,-0.3319,-0.3298,-0.3305,-0.3302,-0.3286,-0.3282,-0.3279,-0.3276,-0.326,-0.3257,-0.3266,-0.3245,-0.3243,-0.3241,-0.3245,-0.3232,-0.3232,-0.3234,-0.3235,-0.3235,-0.3255,0,0,0,0,0,0,-0.3321,-0.3319,-0.332,-0.3305,-0.3302,-0.3296,-0.3282,-0.3279,-0.3275,-0.3273,-0.3259,-0.3256,-0.3245,-0.3242,-0.324,-0.3244,-0.3231,-0.3234,-0.3234,-0.3235,-0.3254,-0.3256,-0.3258,0,0,0,0,0,-0.3322,-0.3327,-0.332,-0.3318,-0.3303,-0.3296,-0.3294,-0.3282,-0.3275,-0.3276,-0.3267,-0.3256,-0.3245,-0.3242,-0.324,-0.3244,-0.3233,-0.3234,-0.3235,-0.3253,-0.3256,-0.3258,0,0,0,0,0,0,-0.3343,-0.3324,-0.3317,-0.3317,-0.3308,-0.3293,-0.3294,-0.3285,-0.3278,-0.3277,-0.3261,-0.3258,-0.3258,-0.325,-0.3247,-0.3247,-0.3238,-0.3238,-0.3252,-0.3255,-0.3257,-0.3258,-0.3231,0,0,0,0,0,-0.3347,-0.3343,-0.3327,-0.3329,-0.3325,-0.331,-0.3307,-0.3298,-0.3288,-0.3285,-0.3275,-0.3266,-0.326,-0.3257,-0.3251,-0.3253,-0.3249,-0.3255,-0.3257,-0.3259,-0.3259,-0.326,-0.3262,-0.3238,-0.3238,-0.3238,0,0,-0.3356,-0.3346,-0.3344,-0.3332,-0.3325,-0.3321,-0.3307,-0.3304,-0.3301,-0.3284,-0.3281,-0.3274,-0.3263,-0.3263,-0.3262,-0.3257,-0.3265,-0.326,-0.3262,-0.3261,-0.3261,-0.3263,-0.3265,-0.3239,-0.3239,-0.3239,0,0,-0.3371,-0.3362,-0.3362,-0.3355,-0.3344,-0.3334,-0.3334,-0.332,-0.3314,-0.3311,-0.3299,-0.3295,-0.3286,-0.3279,-0.3274,-0.3287,-0.3277,-0.3285,-0.3296,-0.3297,-0.3299,-0.3301,-0.3305,-0.3307,-0.3286,-0.3286,-0.3286,0,-0.3383,-0.3377,-0.3364,-0.3361,-0.3356,-0.3341,-0.3341,-0.3335,-0.3322,-0.3319,-0.3314,-0.3302,-0.3294,-0.3291,-0.3295,-0.3291,-0.3291,-0.3287,-0.33,-0.3301,-0.3302,-0.3307,-0.3308,-0.3287,-0.3287,-0.3287,-0.3287,0,-0.3393,-0.3389,-0.3391,-0.3379,-0.3374,-0.3373,-0.336,-0.3357,-0.3348,-0.3339,-0.3336,-0.3326,-0.3318,-0.3317,-0.3308,-0.3313,-0.3311,-0.3303,-0.3293,-0.3306,-0.331,-0.3311,-0.3289,-0.3288,-0.3288,-0.3288,0,0,-0.342,-0.3401,-0.3401,-0.3396,-0.3382,-0.3379,-0.3377,-0.3369,-0.3367,-0.3359,-0.3357,-0.335,-0.3343,-0.3338,-0.3328,-0.3329,-0.334,-0.3321,-0.332,-0.3325,-0.3345,-0.3351,-0.3353,-0.3333,-0.3334,-0.3334,-0.3346,0,-0.3432,-0.3427,-0.3415,-0.3415,-0.3411,-0.3397,-0.3395,-0.3387,-0.3379,-0.3374,-0.3365,-0.3361,-0.3351,-0.3348,-0.3348,-0.3338,-0.3343,-0.3337,-0.3331,-0.3331,-0.3334,-0.3354,-0.3361,-0.3372,-0.3347,-0.3347,-0.3347,0,-0.3445,-0.3438,-0.3437,-0.3424,-0.3422,-0.3421,-0.3413,-0.3409,-0.34,-0.3394,-0.3388,-0.3378,-0.3375,-0.3366,-0.3363,-0.3359,-0.3356,-0.3351,-0.3351,-0.335,-0.334,-0.3354,-0.3376,-0.3377,-0.3349,-0.3349,-0.3349,0,-0.3464,-0.3455,-0.3453,-0.3449,-0.3434,-0.3433,-0.3427,-0.3417,-0.3413,-0.3406,-0.3403,-0.3396,-0.3392,-0.3387,-0.3375,-0.337,-0.3373,-0.3363,-0.3368,-0.3368,-0.3369,-0.3369,-0.3391,-0.3368,-0.3368,-0.3368,-0.3368,0,-0.3479,-0.3479,-0.3461,-0.346,-0.346,-0.3446,-0.3447,-0.3439,-0.343,-0.3428,-0.3415,-0.3413,-0.3397,-0.3393,-0.3384,-0.3383,-0.3381,-0.3376,-0.3374,-0.3377,-0.3378,-0.3375,-0.3374,-0.3368,-0.3368,-0.3368,-0.3368,0,-0.35,-0.3488,-0.3486,-0.3472,-0.3468,-0.3469,-0.3456,-0.3455,-0.3446,-0.3443,-0.3441,-0.3428,-0.3422,-0.341,-0.3402,-0.3396,-0.3397,-0.3392,-0.34,-0.3398,-0.3404,-0.3403,-0.3424,-0.3426,-0.3402,-0.3402,-0.3402,0,-0.3511,-0.351,-0.3496,-0.3493,-0.3488,-0.3483,-0.3479,-0.3466,-0.3462,-0.3452,-0.3452,-0.3445,-0.344,-0.3432,-0.3421,-0.3415,-0.341,-0.3418,-0.3409,-0.3413,-0.341,-0.341,-0.341,-0.342,-0.342,-0.342,-0.342,0,-0.353,-0.3524,-0.3519,-0.3511,-0.3507,-0.35,-0.3493,-0.3492,-0.3477,-0.3474,-0.3468,-0.3464,-0.3455,-0.3449,-0.3441,-0.3435,-0.3425,-0.3423,-0.3424,-0.3428,-0.3432,-0.343,-0.3405,-0.3423,-0.3423,-0.3422,-0.3422,-0.3422,-0.3546,-0.3545,-0.3535,-0.3529,-0.3523,-0.3516,-0.3514,-0.3505,-0.3501,-0.3493,-0.3485,-0.348,-0.3471,-0.3459,-0.3454,-0.345,-0.3445,-0.3446,-0.3446,-0.3447,-0.3448,-0.3433,-0.3448,-0.3448,-0.3448,-0.3448,-0.3448,0,-0.3564,-0.3557,-0.3552,-0.3543,-0.3539,-0.353,-0.3522,-0.3519,-0.3515,-0.3507,-0.3502,-0.3496,-0.349,-0.3479,-0.3472,-0.3471,-0.3467,-0.347,-0.347,-0.3469,-0.3453,-0.3453,-0.3474,-0.3474,-0.3474,-0.3474,-0.3474,-0.3474,-0.3573,-0.3571,-0.3565,-0.3559,-0.3552,-0.3547,-0.3544,-0.3538,-0.3531,-0.3525,-0.352,-0.3513,-0.3504,-0.3497,-0.3491,-0.3488,-0.3486,-0.3491,-0.3486,-0.3472,-0.347,-0.3467,-0.3467,-0.3491,-0.3491,-0.3502,-0.3502,-0.3502]},{"header":{"parameterUnit":"m.s-1","parameterCategory":1,"la1":30.2991,"la2":30.254,"lo1":-89.0895,"lo2":-89.0444,"dy":0.0017,"dx":0.0017,"nx":28,"ny":28,"refTime":"2025-02-04T03:00:00:Z","depth":0,"parameterNumber":3,"parameterNumberName":"V-component_of_WINDS"},"data":[0,0,0,0,0,0,0,0,0,0,0,0,0,0,0,0,0,0,0,0,0,0,0,0,0,0,0,0,0,0,0,0,0,0,0,0,0,0,0,0,0,0,0,0,0,0,0,0,0,0,0,0,0,0,0,0,0,0,0.5134,0.5134,0,0.5114,0.5113,0.5113,0.5097,0.5097,0.5097,0.5096,0.5075,0.5075,0.5074,0,0,0,0,0,0,0,0,0,0,0,0,0,0.5158,0.5157,0.5134,0.5134,0.5133,0.5114,0.5113,0.5113,0.5097,0.5097,0.5096,0.5096,0.5075,0.5075,0.5074,0,0,0,0,0,0,0,0,0,0,0,0,0,0.5143,0.5157,0.5134,0.5123,0.5122,0.5114,0.5113,0.5113,0.5097,0.5097,0.5096,0.5096,0.5075,0.5075,0.5074,0.5075,0,0,0.5072,0.5072,0,0,0,0,0,0,0,0,0.5144,0.5142,0.5125,0.5124,0.5122,0.5108,0.5114,0.51,0.5097,0.5106,0.5096,0.5096,0.5086,0.5085,0.5081,0.5074,0.5073,0.5072,0.5072,0.5072,0.5071,0,0,0,0,0,0,0,0.5145,0.5143,0.5126,0.5124,0.5123,0.5119,0.5116,0.5111,0.5098,0.5105,0.5104,0.5102,0.5085,0.5082,0.5081,0.5073,0.5072,0.5072,0.5071,0.5071,0.5066,0.5067,0,0,0,0,0,0,0.5148,0.5144,0.5126,0.5125,0.5133,0.5118,0.5116,0.5112,0.5098,0.5095,0.5102,0.5101,0.5083,0.5081,0.508,0.508,0.5072,0.5071,0.5071,0.5066,0.5066,0.5067,0,0,0,0,0,0,0.5148,0.5146,0.5127,0.5134,0.5132,0.5118,0.5115,0.5112,0.5109,0.5095,0.5093,0.5101,0.5083,0.5081,0.5077,0.5079,0.5071,0.507,0.5066,0.5066,0.5067,0.5082,0,0,0,0,0,0,0.5149,0.5147,0.5147,0.5134,0.5131,0.5125,0.5115,0.5112,0.5108,0.5106,0.5094,0.5092,0.5082,0.5078,0.5076,0.5078,0.507,0.5066,0.5066,0.5066,0.5081,0.5082,0.5084,0,0,0,0,0,0.515,0.5152,0.5147,0.5145,0.5132,0.5125,0.5123,0.5113,0.5108,0.5108,0.51,0.5092,0.5079,0.5077,0.5075,0.5078,0.5065,0.5066,0.5066,0.508,0.5082,0.5084,0,0,0,0,0,0,0.5165,0.515,0.5145,0.5143,0.5135,0.5122,0.5122,0.5115,0.5109,0.5107,0.5095,0.5092,0.5089,0.5083,0.5081,0.5078,0.5071,0.5072,0.5082,0.5084,0.5086,0.5087,0.5069,0,0,0,0,0,0.5168,0.5164,0.5151,0.5151,0.5147,0.5135,0.5132,0.5125,0.5116,0.5113,0.5104,0.5096,0.5091,0.5087,0.5081,0.508,0.5077,0.508,0.5082,0.5083,0.5083,0.5083,0.5084,0.5069,0.5069,0.5069,0,0,0.5175,0.5166,0.5164,0.5153,0.5147,0.5143,0.5133,0.5129,0.5126,0.5112,0.5108,0.5101,0.5092,0.5089,0.5088,0.5084,0.5087,0.5084,0.5085,0.5085,0.5083,0.5085,0.5086,0.5069,0.5069,0.5069,0,0,0.5184,0.5177,0.5176,0.5169,0.516,0.5152,0.5152,0.514,0.5135,0.513,0.512,0.5116,0.5107,0.51,0.5096,0.5103,0.5096,0.5101,0.5109,0.5109,0.511,0.5111,0.5113,0.5115,0.5102,0.5102,0.5102,0,0.5193,0.5187,0.5176,0.5173,0.5169,0.5157,0.5155,0.515,0.5138,0.5135,0.5131,0.5119,0.5112,0.5108,0.511,0.5106,0.5106,0.5103,0.511,0.5111,0.5112,0.5115,0.5116,0.5103,0.5102,0.5102,0.5102,0,0.5198,0.5194,0.5194,0.5184,0.518,0.5177,0.5166,0.5163,0.5156,0.5149,0.5145,0.5135,0.5127,0.5126,0.5119,0.5121,0.5119,0.5113,0.5106,0.5115,0.5117,0.5118,0.5104,0.5103,0.5103,0.5103,0,0,0.5216,0.5201,0.5201,0.5196,0.5185,0.5181,0.5178,0.5171,0.5168,0.5161,0.5158,0.5151,0.5145,0.514,0.5132,0.5132,0.5138,0.5126,0.5125,0.5128,0.514,0.5144,0.5146,0.5133,0.5133,0.5133,0.5141,0,0.5224,0.5219,0.5209,0.5207,0.5203,0.5192,0.5189,0.5182,0.5175,0.517,0.5162,0.5157,0.515,0.5147,0.5146,0.5138,0.514,0.5137,0.5131,0.513,0.5133,0.5147,0.5152,0.5159,0.5141,0.5141,0.5142,0,0.5232,0.5226,0.5223,0.5212,0.521,0.5208,0.5201,0.5197,0.5188,0.5183,0.5177,0.5169,0.5166,0.5159,0.5154,0.5152,0.5149,0.5144,0.5144,0.5143,0.5137,0.5146,0.5161,0.5162,0.5143,0.5143,0.5143,0,0.5246,0.5236,0.5234,0.523,0.5217,0.5216,0.5211,0.5202,0.5198,0.5191,0.5189,0.5182,0.5178,0.5172,0.5162,0.5159,0.5158,0.5151,0.5154,0.5154,0.5155,0.5155,0.5169,0.5153,0.5153,0.5152,0.5152,0,0.5255,0.5254,0.524,0.5238,0.5237,0.5226,0.5224,0.5218,0.521,0.5207,0.5196,0.5194,0.5181,0.5176,0.5169,0.5166,0.5164,0.516,0.5158,0.5161,0.5161,0.5158,0.5158,0.5153,0.5153,0.5153,0.5153,0,0.527,0.526,0.5257,0.5245,0.5242,0.5241,0.5231,0.5229,0.5222,0.5218,0.5216,0.5204,0.5199,0.5188,0.518,0.5175,0.5173,0.517,0.5176,0.5175,0.5179,0.5178,0.5192,0.5193,0.5176,0.5176,0.5176,0,0.5277,0.5276,0.5264,0.5261,0.5256,0.5252,0.5248,0.5237,0.5234,0.5224,0.5223,0.5217,0.5211,0.5203,0.5193,0.5186,0.5183,0.5188,0.5182,0.5185,0.5183,0.5183,0.5183,0.5189,0.5189,0.519,0.519,0,0.529,0.5285,0.528,0.5273,0.5269,0.5263,0.5257,0.5255,0.5243,0.524,0.5234,0.523,0.5221,0.5215,0.5207,0.5201,0.5193,0.5192,0.5192,0.5195,0.5199,0.5197,0.518,0.5191,0.5191,0.5191,0.5191,0.5191,0.53,0.5299,0.5291,0.5286,0.528,0.5274,0.5272,0.5264,0.5259,0.5252,0.5246,0.524,0.5232,0.5221,0.5215,0.5211,0.5207,0.5208,0.5208,0.5208,0.521,0.52,0.521,0.5209,0.5209,0.5209,0.5209,0,0.5313,0.5307,0.5302,0.5294,0.529,0.5284,0.5276,0.5273,0.5269,0.5262,0.5257,0.525,0.5244,0.5235,0.5228,0.5226,0.5223,0.5225,0.5225,0.5224,0.5213,0.5214,0.5228,0.5228,0.5228,0.5228,0.5228,0.5228,0.5319,0.5316,0.5311,0.5305,0.5299,0.5294,0.5291,0.5286,0.528,0.5273,0.5269,0.5262,0.5254,0.5247,0.5241,0.5238,0.5236,0.524,0.5236,0.5226,0.5224,0.5223,0.5223,0.5239,0.524,0.5247,0.5247,0.5247]}]]